Weather History for Viroqua, WI

Change the Weather History Date:

Sunday, August 25, 2013

  Actual Average (KLSE) Record (KLSE)
Temperature  
Mean Temperature 78 °F 70 °F  
Max Temperature 86 °F 80 °F 97 °F (1948)
Min Temperature 71 °F 60 °F 43 °F (1958)
Degree Days  
Heating Degree Days 0 1  
Month to date heating degree days 5  
Since 1 July heating degree days 10  
Cooling Degree Days 14 6  
Month to date cooling degree days 182  
Year to date cooling degree days 669  
Growing Degree Days 28 (Base 50)    
Moisture  
Dew Point 69 °F    
Average Humidity 72    
Maximum Humidity 86    
Minimum Humidity 59    
Precipitation  
Precipitation 0.00 in 0.13 in 1.87 in (1972)
Month to date precipitation 3.51  
Year to date precipitation 23.18  
Snow  
Snow 0.00 in 0.00 in 0.00 in (2002)
Month to date snowfall 0.0  
Since 1 July snowfall 0.0  
Snow Depth -    
Sea Level Pressure  
Sea Level Pressure 30.13 in    
Wind  
Wind Speed 11 mph (SSW)    
Max Wind Speed 17 mph    
Max Gust Speed 24 mph    
Visibility 10 miles    
Events      
T = Trace of Precipitation, MM = Missing Value Source: NWS Daily Summary

Daily Weather History Graph

Daily Weather History Graph

Search for Another Location

Airport:

Trip Planner

Search our weather history database for the weather conditions in past years. The results will help you decide how hot, cold, wet, or windy it might be!

Date:

Astronomy

Aug. 25, 2013 Rise Set
Actual Time 6:19 AM CDT 7:50 PM CDT
Civil Twilight 5:49 AM CDT 8:20 PM CDT
Nautical Twilight 5:13 AM CDT 8:56 PM CDT
Astronomical Twilight 4:34 AM CDT 9:35 PM CDT
Moon 10:10 PM CDT (8/25) 11:33 AM CDT (8/25)
Length of Visible Light 14h 30m
Length of Day
13h 30m
Waning Gibbous, 75% of the Moon is Illuminated
Aug 25
Waning Gibbous
Aug 28
Last Quarter
Sep 5
New
Sep 12
First Quarter
Sep 19
Full

Hourly Weather History & Observations

Time (CDT) Temp. Heat Index Dew Point Humidity Pressure Visibility Wind Dir Wind Speed Gust Speed Precip Events Conditions
12:15 AM 74.5 °F - 67.8 °F 80% 30.13 in 10.0 mi South 11.5 mph 19.6 mph N/A   Clear
12:35 AM 74.5 °F - 67.6 °F 79% 30.14 in 10.0 mi South 11.5 mph 16.1 mph N/A   Clear
12:55 AM 74.5 °F - 67.6 °F 79% 30.14 in 10.0 mi South 11.5 mph - N/A   Clear
1:15 AM 74.3 °F - 67.5 °F 79% 30.14 in 10.0 mi South 11.5 mph - N/A   Clear
1:35 AM 74.1 °F - 67.5 °F 80% 30.14 in 10.0 mi South 9.2 mph - N/A   Clear
1:55 AM 73.9 °F - 67.5 °F 80% 30.14 in 10.0 mi South 12.7 mph 18.4 mph N/A   Clear
2:15 AM 73.9 °F - 67.5 °F 80% 30.14 in 10.0 mi South 10.4 mph 17.3 mph N/A   Clear
2:35 AM 73.8 °F - 67.5 °F 81% 30.14 in 10.0 mi South 9.2 mph - N/A   Clear
2:55 AM 73.6 °F - 67.5 °F 81% 30.14 in 10.0 mi South 8.1 mph - N/A   Clear
3:15 AM 73.8 °F - 67.5 °F 81% 30.15 in 10.0 mi South 10.4 mph - N/A   Clear
3:35 AM 73.9 °F - 67.3 °F 80% 30.15 in 10.0 mi SSW 9.2 mph - N/A   Clear
3:55 AM 73.2 °F - 67.3 °F 82% 30.15 in 10.0 mi SSW 8.1 mph - N/A   Clear
4:15 AM 73.2 °F - 67.1 °F 81% 30.15 in 10.0 mi South 10.4 mph - N/A   Clear
4:35 AM 72.9 °F - 67.1 °F 82% 30.15 in 10.0 mi SSW 11.5 mph - N/A   Clear
4:55 AM 72.9 °F - 67.1 °F 82% 30.16 in 10.0 mi South 10.4 mph - N/A   Clear
5:15 AM 72.0 °F - 67.1 °F 85% 30.17 in 10.0 mi SSW 6.9 mph - N/A   Clear
5:35 AM 71.6 °F - 67.1 °F 86% 30.16 in 10.0 mi SSW 8.1 mph - N/A   Clear
5:55 AM 71.8 °F - 66.9 °F 85% 30.16 in 10.0 mi SSW 8.1 mph - N/A   Clear
6:15 AM 71.6 °F - 66.7 °F 85% 30.17 in 10.0 mi SSW 6.9 mph - N/A   Clear
6:35 AM 71.6 °F - 66.7 °F 85% 30.17 in 10.0 mi SSW 11.5 mph - N/A   Clear
6:55 AM 71.6 °F - 66.6 °F 84% 30.17 in 10.0 mi SSW 10.4 mph - N/A   Clear
7:15 AM 72.0 °F - 66.7 °F 84% 30.18 in 10.0 mi SSW 10.4 mph - N/A   Clear
7:35 AM 73.2 °F - 66.6 °F 80% 30.18 in 10.0 mi SSW 10.4 mph - N/A   Clear
7:55 AM 74.1 °F - 66.4 °F 77% 30.18 in 10.0 mi SSW 11.5 mph 18.4 mph N/A   Clear
8:15 AM 74.7 °F - 66.4 °F 75% 30.18 in 10.0 mi SSW 9.2 mph - N/A   Clear
8:35 AM 75.2 °F - 66.4 °F 74% 30.18 in 10.0 mi SSW 10.4 mph - N/A   Clear
8:55 AM 76.3 °F - 66.7 °F 72% 30.18 in 10.0 mi SSW 8.1 mph - N/A   Clear
9:15 AM 77.0 °F - 66.6 °F 70% 30.18 in 10.0 mi SSW 12.7 mph 16.1 mph N/A   Clear
9:35 AM 77.7 °F - 67.6 °F 71% 30.18 in 10.0 mi SW 10.4 mph - N/A   Clear
9:55 AM 78.6 °F - 68.2 °F 70% 30.18 in 10.0 mi SSW 11.5 mph 16.1 mph N/A   Clear
10:15 AM 79.2 °F - 67.8 °F 68% 30.17 in 10.0 mi SW 13.8 mph 18.4 mph N/A   Clear
10:35 AM 79.9 °F - 68.9 °F 69% 30.17 in 10.0 mi SW 15.0 mph 20.7 mph N/A   Clear
10:55 AM 80.4 °F 83.4 °F 68.9 °F 68% 30.17 in 10.0 mi SSW 16.1 mph 20.7 mph N/A   Clear
11:15 AM 81.3 °F 84.6 °F 69.3 °F 67% 30.16 in 10.0 mi SW 16.1 mph 21.9 mph N/A   Clear
11:35 AM 81.7 °F 85.4 °F 70.2 °F 68% 30.16 in 10.0 mi SSW 10.4 mph 21.9 mph N/A   Clear
11:55 AM 82.6 °F 86.4 °F 69.8 °F 65% 30.15 in 10.0 mi SSW 16.1 mph 19.6 mph N/A   Clear
12:15 PM 83.5 °F 87.7 °F 70.3 °F 64% 30.15 in 10.0 mi SW 15.0 mph - N/A   Clear
12:35 PM 83.8 °F 88.3 °F 70.7 °F 64% 30.14 in 10.0 mi SW 10.4 mph - N/A   Clear
12:55 PM 83.8 °F 88.1 °F 70.0 °F 63% 30.15 in 10.0 mi SSW 16.1 mph 23.0 mph N/A   Clear
1:15 PM 84.9 °F 89.7 °F 70.7 °F 62% 30.14 in 10.0 mi SSW 17.3 mph 20.7 mph N/A   Clear
1:35 PM 85.1 °F 89.8 °F 70.3 °F 61% 30.13 in 10.0 mi SSW 15.0 mph 20.7 mph N/A   Clear
1:55 PM 85.6 °F 90.8 °F 70.7 °F 61% 30.13 in 10.0 mi SSW 13.8 mph 20.7 mph N/A   Clear
2:15 PM 86.0 °F 91.5 °F 71.2 °F 61% 30.12 in 10.0 mi SW 9.2 mph 19.6 mph N/A   Clear
2:35 PM 86.2 °F 91.4 °F 71.1 °F 60% 30.11 in 10.0 mi SSW 17.3 mph 20.7 mph N/A   Clear
2:55 PM 86.2 °F 92.2 °F 71.6 °F 62% 30.11 in 10.0 mi SSW 17.3 mph 20.7 mph N/A   Clear
3:15 PM 86.2 °F 92.2 °F 71.6 °F 62% 30.10 in 10.0 mi SSW 12.7 mph 23.0 mph N/A   Clear
3:35 PM 86.2 °F 91.4 °F 71.1 °F 60% 30.10 in 10.0 mi SSW 16.1 mph 20.7 mph N/A   Clear
3:55 PM 86.2 °F 91.8 °F 71.4 °F 61% 30.10 in 10.0 mi SSW 13.8 mph 19.6 mph N/A   Clear
4:15 PM 86.0 °F 91.1 °F 70.5 °F 60% 30.10 in 10.0 mi SSW 17.3 mph 21.9 mph N/A   Clear
4:35 PM 86.0 °F 91.1 °F 70.7 °F 60% 30.10 in 10.0 mi SSW 13.8 mph 21.9 mph N/A   Clear
4:55 PM 85.8 °F 90.4 °F 70.2 °F 59% 30.10 in 10.0 mi SSW 16.1 mph 24.2 mph N/A   Clear
5:15 PM 85.3 °F 90.1 °F 70.3 °F 61% 30.10 in 10.0 mi SSW 13.8 mph 24.2 mph N/A   Clear
5:35 PM 85.1 °F 90.1 °F 70.7 °F 62% 30.10 in 10.0 mi SSW 12.7 mph - N/A   Clear
5:55 PM 84.7 °F 89.7 °F 70.9 °F 63% 30.10 in 10.0 mi SSW 10.4 mph 18.4 mph N/A   Clear
6:15 PM 84.4 °F 89.4 °F 70.9 °F 64% 30.10 in 10.0 mi SSW 12.7 mph 17.3 mph N/A   Clear
6:35 PM 83.7 °F 88.3 °F 70.7 °F 65% 30.09 in 10.0 mi SSW 12.7 mph - N/A   Clear
6:55 PM 82.8 °F 86.9 °F 70.2 °F 66% 30.09 in 10.0 mi SSW 11.5 mph - N/A   Clear
7:15 PM 82.0 °F 85.9 °F 70.0 °F 67% 30.09 in 10.0 mi SSW 11.5 mph 16.1 mph N/A   Clear
7:35 PM 80.8 °F 84.2 °F 70.2 °F 70% 30.10 in 10.0 mi South 8.1 mph - N/A   Clear
7:55 PM 79.5 °F - 70.0 °F 72% 30.10 in 10.0 mi South 5.8 mph - N/A   Clear
8:15 PM 79.0 °F - 70.0 °F 74% 30.10 in 10.0 mi South 5.8 mph - N/A   Clear
8:35 PM 78.8 °F - 70.7 °F 76% 30.10 in 10.0 mi South 6.9 mph - N/A   Clear
8:55 PM 78.3 °F - 70.2 °F 76% 30.11 in 10.0 mi South 8.1 mph - N/A   Clear
9:15 PM 77.7 °F - 69.8 °F 76% 30.11 in 10.0 mi South 8.1 mph - N/A   Clear
9:35 PM 77.2 °F - 69.3 °F 76% 30.11 in 10.0 mi South 9.2 mph - N/A   Clear
9:55 PM 77.5 °F - 68.2 °F 73% 30.11 in 10.0 mi SSW 11.5 mph 16.1 mph N/A   Clear
10:15 PM 77.2 °F - 67.5 °F 72% 30.11 in 10.0 mi South 10.4 mph - N/A   Clear
10:35 PM 76.6 °F - 66.4 °F 70% 30.11 in 10.0 mi South 6.9 mph - N/A   Clear
10:55 PM 75.7 °F - 65.7 °F 71% 30.11 in 10.0 mi South 6.9 mph - N/A   Clear
11:15 PM 75.6 °F - 64.8 °F 69% 30.11 in 10.0 mi South 6.9 mph - N/A   Clear
11:35 PM 75.2 °F - 64.4 °F 69% 30.10 in 10.0 mi South 9.2 mph - N/A   Clear
11:55 PM 74.8 °F - 64.4 °F 70% 30.10 in 10.0 mi South 10.4 mph - N/A   Clear